Voltar ao catálogo

DELTA 1 DEB

AtivoSSO
NORAD 7013·DEBRIS·🇺🇸 United States

Lançado Nov 6, 1973 de Vandenberg Space Force Base

Loading…

Próximas Passagens (próximas 24 horas)

TLE

AtualizadoSource: Space-Track

Época: Sep 14, 2026, 12:41 UTC

1 07013U 73086D   26257.52913291 -.00000014  00000-0  21061-3 0  9998
2 07013 102.0161 270.0744 0068929 294.6712 220.9192 12.51888250413578

Acompanhe DELTA 1 DEB em tempo real com AllMySat

Download on the App Store